Regional Weather Roundup
Issued by NWS

Home | Current Version | Previous Version | Text Only | Print | Product List | Glossary Off
Versions: 1 2 3 4 5 6 7 8 9 10 11 12 13 14 15 16 17 18 19 20 21 22 23 24 25 26 27 28 29 30 31 32 33 34 35 36 37 38 39 40 41 42 43 44 45 46 47 48 49 50

000
ASUS43 KDTX 261601
RWRMI
MICHIGAN HOURLY REGIONAL WEATHER ROUNDUP
NATIONAL WEATHER SERVICE DETROIT/PONTIAC MI
1200 PM EDT TUE JUL 26 2016

NOTE: "FAIR" INDICATES FEW OR NO CLOUDS BELOW 12,000 FEET WITH NO
SIGNIFICANT WEATHER AND/OR OBSTRUCTION TO VISIBILITY.

MIZ047>049-052>055-059>063-066>070-074>076-081>083-261700-
SOUTHEAST LOWER MICHIGAN

CITY           SKY/WX    TMP DP  RH WIND       PRES   REMARKS
ADRIAN         SUNNY     81  60  48 VRB6      30.09R
ALMA           SUNNY     83  68  60 SW3       30.06F
ANN ARBOR      PTSUNNY   85  61  44 CALM      30.07S
BAD AXE        MOSUNNY   80  57  45 NW6       30.07R
CARO           SUNNY     82  62  51 W5        30.05S
DETROIT CITY   SUNNY     81  61  50 E3        30.07R
DETROIT        MOSUNNY   84  58  40 VRB3      30.07S
FLINT          SUNNY     85  60  42 VRB5      30.07S
GROSSE ILE     SUNNY     77  67  71 S7        30.07R
HOWELL         SUNNY     81  60  47 SW5       30.09S

CITY           SKY/WX    TMP DP  RH WIND       PRES   REMARKS
JACKSON        SUNNY     80  58  46 VRB6      30.09S
LAMBERTVILLE   SUNNY     82  62  50 E6        30.09R
LANSING        SUNNY     81  61  50 NW5       30.08S
LAPEER         FAIR      81  58  45 W7        30.07S
MASON          SUNNY     80  61  53 SW3       30.09R
MONROE         SUNNY     80  68  67 SE7       30.07S
MT. CLEMENS    MOSUNNY   79  63  58 E7        30.06R
PONTIAC        MOSUNNY   80  60  50 W3        30.07S
PORT HURON     SUNNY     79  61  53 CALM      30.06S
TRI CITIES     SUNNY     81  64  56 SW9       30.05F
MIDLAND        FAIR      82  63  51 W6        30.04S
TROY           SUNNY     83  55  38 W5        30.08S
SAGINAW HB     SUNNY     81  61  50 S6        30.05S
$$
MIZ043>046-050>051-056>058-064>065-071>073-077>080-261700-
SOUTHWEST LOWER MICHIGAN

CITY           SKY/WX    TMP DP  RH WIND       PRES   REMARKS
BATTLE CREEK   MOSUNNY  N/A N/A N/A SE3       30.10R
BENTON HARBOR  SUNNY     80  63  55 VRB3      30.07S
BIG RAPIDS     SUNNY     81  56  41 W3        30.06S
COLDWATER      SUNNY     81  60  49 CALM      30.09S
FREMONT        FAIR      82  60  46 CALM      30.06S
HOLLAND        SUNNY     82  66  58 W7        30.08S
GRAND RAPIDS   MOSUNNY   81  62  52 VRB5      30.07S
IONIA          PTSUNNY   82  64  53 SW6       30.07S
KALAMAZOO      MOSUNNY   81  60  48 E6        30.09S
LUDINGTON      SUNNY     80  68  66 SW5       30.05S
MARSHALL       MOSUNNY   81  59  47 CALM      30.09S
MOUNT PLEASANT SUNNY     83  62  48 W8        30.04F
MUSKEGON       MOSUNNY   84  66  54 W6        30.06S
$$
MIZ016>042-261700-
NORTHERN LOWER MICHIGAN

CITY           SKY/WX    TMP DP  RH WIND       PRES   REMARKS
ALPENA         MOSUNNY   82  54  37 W10G16    30.02F
BEAVER ISLAND  SUNNY     78  64  60 SW8       30.02R
BELLAIRE       SUNNY     82  59  45 W5        30.03S
CADILLAC       SUNNY     80  57  44 N5        30.06F
CHARLEVOIX     SUNNY     82  57  42 W9        30.05S
FRANKFORT      SUNNY     79  64  60 SW7       30.05R
GAYLORD        SUNNY     80  56  43 W8        30.05F
GRAYLING       SUNNY     83  55  38 N6        30.05F
HARBOR SPRINGS SUNNY     78  64  63 SW5       30.02S
HOUGHTON LAKE  MOSUNNY   79  61  53 W6        30.07F
MANISTEE       SUNNY     83  61  47 SW6       30.04S
OSCODA         PTSUNNY   80  56  43 N5        30.02F
ROGERS CITY    SUNNY     82  55  39 W6        30.02S
TRAVERSE CITY  MOSUNNY   84  59  42 VRB6      30.02S
$$
MIZ007>008-015-261700-
EASTERN UPPER MICHIGAN

CITY           SKY/WX    TMP DP  RH WIND       PRES   REMARKS
KINROSS        SUNNY     81  63  54 VRB6      29.99F
MACKINAC ISLAN SUNNY     74  64  70 SW10G16   30.01S
S. S. MARIE    SUNNY     79  62  56 W6        29.98F
$$
MIZ004>006-011>014-085-261700-
CENTRAL UPPER MICHIGAN

CITY           SKY/WX    TMP DP  RH WIND       PRES   REMARKS
ESCANABA       SUNNY     79  66  65 S10       29.98F
MENOMINEE      SUNNY    N/A N/A N/A MISG        N/A
SAWYER-GWINN   SUNNY     82  63  51 W10       30.01S
$$
MIZ001>003-009>011-084-261700-
WESTERN UPPER MICHIGAN

CITY           SKY/WX    TMP DP  RH WIND       PRES   REMARKS
IRON MOUNTAIN  SUNNY     83  63  50 SW5       30.01F
HOUGHTON       MOSUNNY   79  62  56 W7        29.97F
COPPER HARBOR    N/A     73  66  78 N9        29.94F
IRONWOOD       SUNNY     81  66  61 SW13      29.96F
$$

ABBREVIATIONS USED IN REMARKS
   TC - TEMPERATURE IN CELSIUS
  WCI - WIND CHILL INDEX
   HX - HEAT INDEX
  VSB - VISIBILITY





USA.gov is the U.S. government's official web portal to all federal, state and local government web resources and services.